AWC11 ZULS-ZPLJ

Flight info

Callsign AWC11
Flight time 1h 27m
Altitude 39100
Route DM01D DM DCT LOSPO DCT DAL DAL21A
Aircraft A21N/M-SDE3FGHIRWY/LB1

Departure

Time 2026-04-23 19:50
Airport Lhasa Gonggar International Airport (ZULS)

Arrival

Time 2026-04-23 21:18
Airport Lijiang Sanyi International Airport (ZPLJ)
Time Latitude Longitude Altitude Speed Heading
2026-04-23 19:09 29.29395 90.89726 11916 ft 0 kts 179°
2026-04-23 19:38 29.29396 90.89726 11916 ft 0 kts 179°
2026-04-23 19:38 29.29398 90.89726 11915 ft 1 kts 179°
2026-04-23 19:39 29.29413 90.89726 11914 ft 2 kts 179°
2026-04-23 19:39 29.29428 90.89726 11913 ft 2 kts 179°
2026-04-23 19:39 29.29443 90.89725 11913 ft 2 kts 179°
2026-04-23 19:39 29.29458 90.89725 11913 ft 2 kts 179°
2026-04-23 19:40 29.29473 90.89724 11913 ft 2 kts 179°
2026-04-23 19:40 29.29488 90.89724 11913 ft 2 kts 179°
2026-04-23 19:40 29.29502 90.89728 11913 ft 2 kts 213°
2026-04-23 19:40 29.29514 90.89740 11913 ft 2 kts 238°
2026-04-23 19:41 29.29519 90.89755 11914 ft 1 kts 263°
2026-04-23 19:41 29.29520 90.89763 11914 ft 1 kts 271°
2026-04-23 19:41 29.29520 90.89766 11915 ft 0 kts 269°
2026-04-23 19:44 29.29520 90.89764 11916 ft 1 kts 269°
2026-04-23 19:44 29.29519 90.89745 11915 ft 3 kts 269°
2026-04-23 19:44 29.29519 90.89704 11914 ft 6 kts 270°
2026-04-23 19:45 29.29520 90.89643 11912 ft 8 kts 271°
2026-04-23 19:45 29.29520 90.89574 11912 ft 9 kts 269°
2026-04-23 19:45 29.29518 90.89498 11912 ft 9 kts 266°
2026-04-23 19:45 29.29515 90.89417 11912 ft 10 kts 269°
2026-04-23 19:46 29.29513 90.89330 11913 ft 11 kts 267°
2026-04-23 19:46 29.29515 90.89245 11914 ft 10 kts 287°
2026-04-23 19:46 29.29567 90.89198 11914 ft 10 kts 353°
2026-04-23 19:46 29.29626 90.89196 11913 ft 0 kts 357°
2026-04-23 19:48 29.29638 90.89195 11913 ft 4 kts 358°
2026-04-23 19:48 29.29688 90.89194 11913 ft 9 kts 358°
2026-04-23 19:48 29.29765 90.89220 11914 ft 14 kts 57°
2026-04-23 19:49 29.29773 90.89249 11913 ft 0 kts 81°
2026-04-23 19:49 29.29775 90.89380 11913 ft 44 kts 93°
2026-04-23 19:49 29.29773 90.89983 11910 ft 106 kts 88°
2026-04-23 19:49 29.29800 90.91040 11904 ft 157 kts 87°
2026-04-23 19:50 29.29819 90.92405 12098 ft 179 kts 92°
2026-04-23 19:50 29.29832 90.93856 12467 ft 188 kts 92°
2026-04-23 19:50 29.29864 90.95396 12967 ft 196 kts 91°
2026-04-23 19:50 29.29913 90.96978 13448 ft 208 kts 89°
2026-04-23 19:51 29.29961 90.98716 13878 ft 222 kts 94°
2026-04-23 19:51 29.29851 91.00549 14275 ft 239 kts 95°
2026-04-23 19:51 29.29757 91.02498 14675 ft 257 kts 93°
2026-04-23 19:51 29.29712 91.04614 15086 ft 275 kts 92°
2026-04-23 19:52 29.29700 91.06126 15361 ft 287 kts 92°
2026-04-23 19:52 29.29699 91.09266 16086 ft 302 kts 91°
2026-04-23 19:52 29.29707 91.11673 16796 ft 307 kts 91°
2026-04-23 19:52 29.29717 91.14123 17529 ft 311 kts 91°
2026-04-23 19:53 29.29648 91.16621 18239 ft 315 kts 98°
2026-04-23 19:53 29.29198 91.19063 18938 ft 317 kts 109°
2026-04-23 19:53 29.28488 91.21474 19564 ft 322 kts 108°
2026-04-23 19:53 29.28079 91.24044 19980 ft 339 kts 95°
2026-04-23 19:54 29.27974 91.26802 20316 ft 356 kts 92°
2026-04-23 19:54 29.27910 91.29675 20617 ft 374 kts 92°
2026-04-23 19:54 29.27817 91.32736 21075 ft 387 kts 92°
2026-04-23 19:54 29.27693 91.35830 21778 ft 392 kts 92°
2026-04-23 19:55 29.27549 91.38929 22524 ft 397 kts 92°
2026-04-23 19:55 29.27389 91.42088 23310 ft 401 kts 92°
2026-04-23 19:55 29.27220 91.45274 24097 ft 404 kts 92°
2026-04-23 19:55 29.27046 91.48520 24875 ft 408 kts 92°
2026-04-23 19:56 29.26872 91.51739 25600 ft 411 kts 92°
2026-04-23 19:56 29.26692 91.55003 26289 ft 415 kts 91°
2026-04-23 19:56 29.26509 91.58342 26966 ft 418 kts 91°
2026-04-23 19:56 29.26326 91.61666 27586 ft 422 kts 91°
2026-04-23 19:57 29.26139 91.65026 28180 ft 426 kts 91°
2026-04-23 19:57 29.25949 91.68420 28756 ft 430 kts 91°
2026-04-23 19:57 29.25740 91.71847 29290 ft 435 kts 93°
2026-04-23 19:57 29.25348 91.75270 29832 ft 439 kts 97°
2026-04-23 19:58 29.24690 91.78767 30380 ft 443 kts 102°
2026-04-23 19:58 29.23794 91.82147 30916 ft 447 kts 107°
2026-04-23 19:58 29.22769 91.85510 31410 ft 450 kts 107°
2026-04-23 19:58 29.21710 91.88905 31868 ft 454 kts 107°
2026-04-23 19:59 29.20655 91.92277 32354 ft 456 kts 107°
2026-04-23 19:59 29.19584 91.95715 32811 ft 458 kts 108°
2026-04-23 19:59 29.18503 91.99194 33250 ft 460 kts 107°
2026-04-23 19:59 29.17433 92.02631 33693 ft 462 kts 107°
2026-04-23 20:00 29.16350 92.06115 34310 ft 460 kts 108°
2026-04-23 20:00 29.15284 92.09541 34929 ft 458 kts 108°
2026-04-23 20:00 29.14205 92.13010 35438 ft 457 kts 108°
2026-04-23 20:00 29.13144 92.16420 35950 ft 457 kts 108°
2026-04-23 20:01 29.12081 92.19834 36403 ft 456 kts 108°
2026-04-23 20:01 29.11023 92.23227 36865 ft 456 kts 108°
2026-04-23 20:01 29.09960 92.26631 37305 ft 457 kts 108°
2026-04-23 20:01 29.08880 92.30086 37676 ft 458 kts 108°
2026-04-23 20:02 29.07809 92.33512 38060 ft 458 kts 108°
2026-04-23 20:02 29.06751 92.36890 38425 ft 459 kts 108°
2026-04-23 20:02 29.05662 92.40363 38730 ft 461 kts 108°
2026-04-23 20:02 29.04579 92.43807 38997 ft 463 kts 108°
2026-04-23 20:03 29.03489 92.47274 39269 ft 465 kts 108°
2026-04-23 20:03 29.02403 92.50732 39568 ft 466 kts 108°
2026-04-23 20:03 29.01308 92.54215 39846 ft 467 kts 108°
2026-04-23 20:04 28.99101 92.61217 39854 ft 471 kts 108°
2026-04-23 20:04 28.96868 92.68288 39878 ft 471 kts 109°
2026-04-23 20:05 28.94995 92.74204 39919 ft 473 kts 109°
2026-04-23 20:05 28.92386 92.82433 39894 ft 473 kts 108°
2026-04-23 20:06 28.90140 92.89499 39899 ft 473 kts 109°
2026-04-23 20:06 28.87900 92.96533 39843 ft 473 kts 109°
2026-04-23 20:07 28.85643 93.03612 39824 ft 473 kts 109°
2026-04-23 20:07 28.83387 93.10663 39802 ft 474 kts 109°
2026-04-23 20:08 28.81131 93.17696 39792 ft 474 kts 108°
2026-04-23 20:08 28.78872 93.24739 39779 ft 474 kts 108°
2026-04-23 20:09 28.76598 93.31814 39792 ft 475 kts 109°
2026-04-23 20:09 28.74321 93.38868 39808 ft 475 kts 108°
2026-04-23 20:10 28.72410 93.44788 39773 ft 476 kts 109°
2026-04-23 20:10 28.69732 93.53060 39742 ft 477 kts 109°
2026-04-23 20:11 28.67433 93.60147 39738 ft 477 kts 109°
2026-04-23 20:11 28.65120 93.67262 39729 ft 477 kts 109°
2026-04-23 20:12 28.62820 93.74321 39745 ft 478 kts 109°
2026-04-23 20:12 28.60502 93.81428 39713 ft 478 kts 109°
2026-04-23 20:13 28.58181 93.88521 39732 ft 478 kts 109°
2026-04-23 20:13 28.55869 93.95580 39682 ft 479 kts 109°
2026-04-23 20:14 28.53528 94.02705 39659 ft 478 kts 109°
2026-04-23 20:14 28.51195 94.09795 39656 ft 478 kts 109°
2026-04-23 20:15 28.48849 94.16907 39601 ft 479 kts 109°
2026-04-23 20:15 28.46510 94.23990 39537 ft 480 kts 109°
2026-04-23 20:16 28.44166 94.31074 39499 ft 479 kts 109°
2026-04-23 20:16 28.41818 94.38155 39418 ft 480 kts 110°
2026-04-23 20:17 28.39440 94.45303 39372 ft 480 kts 110°
2026-04-23 20:17 28.37087 94.52366 39310 ft 481 kts 109°
2026-04-23 20:18 28.34706 94.59502 39279 ft 481 kts 110°
2026-04-23 20:18 28.32323 94.66627 39252 ft 481 kts 110°
2026-04-23 20:19 28.29946 94.73732 39201 ft 481 kts 110°
2026-04-23 20:19 28.27576 94.80785 39149 ft 481 kts 110°
2026-04-23 20:20 28.25178 94.87903 39115 ft 482 kts 110°
2026-04-23 20:20 28.22801 94.94959 39078 ft 482 kts 110°
2026-04-23 20:21 28.20417 95.02020 39071 ft 481 kts 110°
2026-04-23 20:21 28.18003 95.09154 39090 ft 483 kts 110°
2026-04-23 20:22 28.15591 95.16270 39100 ft 482 kts 110°
2026-04-23 20:22 28.13180 95.23370 39102 ft 483 kts 111°
2026-04-23 20:23 28.10768 95.30449 39091 ft 482 kts 110°
2026-04-23 20:23 28.08363 95.37505 39082 ft 484 kts 111°
2026-04-23 20:24 28.05930 95.44617 39068 ft 484 kts 111°
2026-04-23 20:24 28.03514 95.51676 39047 ft 484 kts 111°
2026-04-23 20:25 28.01078 95.58783 39028 ft 485 kts 111°
2026-04-23 20:25 27.98645 95.65857 39013 ft 486 kts 111°
2026-04-23 20:26 27.96191 95.72987 39002 ft 487 kts 111°
2026-04-23 20:26 27.93727 95.80120 38987 ft 487 kts 111°
2026-04-23 20:27 27.91267 95.87232 38989 ft 488 kts 111°
2026-04-23 20:27 27.88733 95.94383 38980 ft 488 kts 114°
2026-04-23 20:28 27.85651 96.01235 38973 ft 487 kts 119°
2026-04-23 20:28 27.82375 96.07909 38990 ft 489 kts 120°
2026-04-23 20:29 27.79060 96.14640 39017 ft 489 kts 120°
2026-04-23 20:29 27.75757 96.21365 39022 ft 489 kts 120°
2026-04-23 20:30 27.72461 96.28072 39056 ft 491 kts 120°
2026-04-23 20:30 27.67482 96.38198 39171 ft 491 kts 120°
2026-04-23 20:31 27.64162 96.44932 39203 ft 493 kts 120°
2026-04-23 20:31 27.60827 96.51686 39248 ft 493 kts 120°
2026-04-23 20:32 27.57478 96.58465 39268 ft 494 kts 120°
2026-04-23 20:32 27.54128 96.65222 39283 ft 495 kts 120°
2026-04-23 20:33 27.50747 96.72037 39383 ft 495 kts 120°
2026-04-23 20:33 27.47391 96.78796 39431 ft 496 kts 120°
2026-04-23 20:34 27.44019 96.85575 39429 ft 495 kts 120°
2026-04-23 20:34 27.40655 96.92320 39436 ft 496 kts 120°
2026-04-23 20:35 27.37251 96.99136 39441 ft 497 kts 120°
2026-04-23 20:35 27.33884 97.05872 39418 ft 498 kts 120°
2026-04-23 20:36 27.30464 97.12706 39361 ft 498 kts 120°
2026-04-23 20:36 27.27067 97.19478 39280 ft 499 kts 120°
2026-04-23 20:37 27.23655 97.26265 39238 ft 501 kts 120°
2026-04-23 20:37 27.20218 97.33101 39229 ft 502 kts 120°
2026-04-23 20:38 27.16801 97.39883 39224 ft 502 kts 120°
2026-04-23 20:38 27.13345 97.46735 39198 ft 504 kts 120°
2026-04-23 20:39 27.09896 97.53556 39177 ft 506 kts 120°
2026-04-23 20:39 27.06411 97.60441 39163 ft 508 kts 120°
2026-04-23 20:40 27.02926 97.67311 39170 ft 508 kts 121°
2026-04-23 20:40 26.99445 97.74162 39173 ft 509 kts 121°
2026-04-23 20:41 26.95927 97.81079 39186 ft 510 kts 121°
2026-04-23 20:41 26.92429 97.87941 39175 ft 511 kts 121°
2026-04-23 20:42 26.88896 97.94866 39170 ft 513 kts 121°
2026-04-23 20:42 26.85368 98.01773 39181 ft 515 kts 121°
2026-04-23 20:43 26.81807 98.08731 39218 ft 514 kts 121°
2026-04-23 20:43 26.78231 98.15705 39271 ft 516 kts 121°
2026-04-23 20:44 26.74659 98.22659 39342 ft 519 kts 121°
2026-04-23 20:44 26.71064 98.29655 39393 ft 518 kts 121°
2026-04-23 20:45 26.67466 98.36636 39383 ft 518 kts 121°
2026-04-23 20:45 26.63838 98.43672 39400 ft 521 kts 122°
2026-04-23 20:46 26.60232 98.50642 39405 ft 521 kts 122°
2026-04-23 20:46 26.56598 98.57658 39445 ft 522 kts 122°
2026-04-23 20:47 26.52979 98.64638 39468 ft 523 kts 122°
2026-04-23 20:47 26.49326 98.71683 39519 ft 523 kts 123°
2026-04-23 20:48 26.45657 98.78731 39557 ft 524 kts 123°
2026-04-23 20:48 26.41992 98.85757 39555 ft 525 kts 123°
2026-04-23 20:49 26.38311 98.92819 39535 ft 525 kts 123°
2026-04-23 20:49 26.34640 98.99844 39516 ft 526 kts 123°
2026-04-23 20:50 26.30926 99.06942 39433 ft 527 kts 123°
2026-04-23 20:50 26.29089 99.10445 39149 ft 528 kts 123°
2026-04-23 20:50 26.27220 99.14008 38839 ft 526 kts 123°
2026-04-23 20:51 26.25392 99.17494 38568 ft 523 kts 123°
2026-04-23 20:51 26.23549 99.20994 38301 ft 520 kts 123°
2026-04-23 20:51 26.21717 99.24481 38027 ft 517 kts 123°
2026-04-23 20:51 26.19901 99.27930 37769 ft 515 kts 123°
2026-04-23 20:52 26.18096 99.31361 37512 ft 511 kts 122°
2026-04-23 20:52 26.16312 99.34749 37241 ft 510 kts 123°
2026-04-23 20:52 26.14506 99.38173 36964 ft 509 kts 122°
2026-04-23 20:52 26.12710 99.41573 36695 ft 509 kts 122°
2026-04-23 20:53 26.10919 99.44961 36430 ft 507 kts 122°
2026-04-23 20:53 26.09129 99.48348 36188 ft 506 kts 121°
2026-04-23 20:53 26.07352 99.51706 35927 ft 503 kts 121°
2026-04-23 20:53 26.05588 99.55051 35663 ft 500 kts 121°
2026-04-23 20:54 26.03796 99.58431 35404 ft 499 kts 121°
2026-04-23 20:54 26.02031 99.61759 35146 ft 498 kts 121°
2026-04-23 20:54 26.00304 99.65022 34874 ft 496 kts 121°
2026-04-23 20:54 25.98547 99.68328 34622 ft 494 kts 121°
2026-04-23 20:55 25.96788 99.71641 34376 ft 491 kts 121°
2026-04-23 20:55 25.95046 99.74917 34093 ft 491 kts 121°
2026-04-23 20:55 25.93312 99.78168 33842 ft 491 kts 120°
2026-04-23 20:55 25.91560 99.81454 33615 ft 487 kts 120°
2026-04-23 20:56 25.89832 99.84703 33338 ft 486 kts 120°
2026-04-23 20:56 25.88114 99.87931 33046 ft 486 kts 120°
2026-04-23 20:56 25.86387 99.91168 32771 ft 488 kts 120°
2026-04-23 20:56 25.84650 99.94426 32505 ft 485 kts 120°
2026-04-23 20:57 25.82931 99.97639 32256 ft 484 kts 119°
2026-04-23 20:57 25.81205 100.00869 31998 ft 482 kts 119°
2026-04-23 20:57 25.79518 100.04026 31726 ft 478 kts 119°
2026-04-23 20:57 25.77796 100.07246 31466 ft 477 kts 119°
2026-04-23 20:58 25.76107 100.10398 31200 ft 474 kts 119°
2026-04-23 20:58 25.74424 100.13538 30936 ft 471 kts 119°
2026-04-23 20:58 25.72737 100.16682 30685 ft 470 kts 118°
2026-04-23 20:58 25.71081 100.19761 30424 ft 467 kts 118°
2026-04-23 20:59 25.69621 100.22965 30107 ft 460 kts 105°
2026-04-23 20:59 25.69106 100.26411 29738 ft 445 kts 85°
2026-04-23 20:59 25.69575 100.29726 29343 ft 429 kts 67°
2026-04-23 20:59 25.70883 100.32649 28874 ft 413 kts 50°
2026-04-23 21:00 25.72798 100.34930 28388 ft 399 kts 34°
2026-04-23 21:00 25.75131 100.36504 27869 ft 388 kts 20°
2026-04-23 21:00 25.77657 100.37519 27361 ft 382 kts 15°
2026-04-23 21:00 25.80179 100.38467 26832 ft 379 kts 15°
2026-04-23 21:01 25.82690 100.39415 26329 ft 375 kts 16°
2026-04-23 21:01 25.85153 100.40353 25818 ft 371 kts 16°
2026-04-23 21:01 25.87569 100.41280 25329 ft 368 kts 16°
2026-04-23 21:01 25.90019 100.42221 24804 ft 365 kts 16°
2026-04-23 21:02 25.92378 100.43131 24290 ft 363 kts 16°
2026-04-23 21:02 25.94810 100.44074 23770 ft 361 kts 16°
2026-04-23 21:02 25.97165 100.44988 23263 ft 358 kts 16°
2026-04-23 21:02 25.99505 100.45895 22761 ft 356 kts 16°
2026-04-23 21:03 26.01852 100.46807 22264 ft 354 kts 17°
2026-04-23 21:03 26.04175 100.47707 21738 ft 354 kts 17°
2026-04-23 21:03 26.06524 100.48620 21201 ft 353 kts 17°
2026-04-23 21:03 26.08839 100.49500 20681 ft 351 kts 14°
2026-04-23 21:04 26.11229 100.49761 20163 ft 345 kts 352°
2026-04-23 21:04 26.13499 100.48972 19785 ft 337 kts 332°
2026-04-23 21:04 26.15307 100.47387 19566 ft 328 kts 313°
2026-04-23 21:04 26.16490 100.45265 19330 ft 322 kts 295°
2026-04-23 21:05 26.17183 100.42905 19143 ft 313 kts 290°
2026-04-23 21:05 26.17809 100.40627 19010 ft 301 kts 290°
2026-04-23 21:05 26.18405 100.38438 18892 ft 290 kts 290°
2026-04-23 21:05 26.18976 100.36361 18825 ft 276 kts 290°
2026-04-23 21:06 26.19537 100.34328 18740 ft 264 kts 290°
2026-04-23 21:06 26.20067 100.32412 18658 ft 252 kts 290°
2026-04-23 21:06 26.20579 100.30567 18405 ft 251 kts 290°
2026-04-23 21:06 26.21101 100.28694 18075 ft 250 kts 290°
2026-04-23 21:07 26.21611 100.26849 17762 ft 250 kts 290°
2026-04-23 21:07 26.22122 100.25002 17454 ft 249 kts 290°
2026-04-23 21:07 26.22627 100.23166 17139 ft 249 kts 290°
2026-04-23 21:07 26.23139 100.21307 16825 ft 248 kts 290°
2026-04-23 21:08 26.23640 100.19483 16518 ft 247 kts 289°
2026-04-23 21:08 26.24145 100.17649 16197 ft 247 kts 289°
2026-04-23 21:08 26.24645 100.15831 15885 ft 247 kts 289°
2026-04-23 21:08 26.25150 100.14002 15580 ft 246 kts 290°
2026-04-23 21:09 26.25961 100.12353 15238 ft 236 kts 317°
2026-04-23 21:09 26.27338 100.11423 14941 ft 230 kts 344°
2026-04-23 21:09 26.28922 100.11306 14630 ft 231 kts 10°
2026-04-23 21:09 26.30469 100.11777 14365 ft 235 kts 16°
2026-04-23 21:10 26.32081 100.12333 14268 ft 245 kts 15°
2026-04-23 21:10 26.33684 100.12887 14254 ft 229 kts 15°
2026-04-23 21:10 26.35196 100.13397 14263 ft 224 kts 15°
2026-04-23 21:10 26.36641 100.13879 14342 ft 209 kts 15°
2026-04-23 21:11 26.37952 100.14324 14334 ft 183 kts 15°
2026-04-23 21:11 26.39115 100.14721 14269 ft 166 kts 15°
2026-04-23 21:11 26.40207 100.15092 14270 ft 163 kts 15°
2026-04-23 21:11 26.41293 100.15460 14280 ft 163 kts 14°
2026-04-23 21:12 26.42388 100.15833 14288 ft 163 kts 14°
2026-04-23 21:12 26.43472 100.16202 14296 ft 163 kts 15°
2026-04-23 21:12 26.44555 100.16573 14298 ft 162 kts 15°
2026-04-23 21:12 26.45634 100.16941 14302 ft 162 kts 14°
2026-04-23 21:13 26.46717 100.17312 14311 ft 163 kts 14°
2026-04-23 21:13 26.47818 100.17687 14312 ft 163 kts 15°
2026-04-23 21:13 26.48890 100.18054 14234 ft 159 kts 15°
2026-04-23 21:13 26.49946 100.18415 14143 ft 157 kts 14°
2026-04-23 21:14 26.50987 100.18771 13832 ft 157 kts 15°
2026-04-23 21:14 26.52038 100.19129 13394 ft 159 kts 15°
2026-04-23 21:14 26.53103 100.19492 12981 ft 158 kts 14°
2026-04-23 21:14 26.54151 100.19850 12578 ft 158 kts 14°
2026-04-23 21:15 26.55196 100.20206 12187 ft 157 kts 15°
2026-04-23 21:15 26.56233 100.20561 11802 ft 155 kts 15°
2026-04-23 21:15 26.57260 100.20911 11418 ft 154 kts 15°
2026-04-23 21:15 26.58280 100.21256 11024 ft 155 kts 14°
2026-04-23 21:16 26.59373 100.21641 10351 ft 173 kts 17°
2026-04-23 21:16 26.60535 100.22098 9786 ft 180 kts 17°
2026-04-23 21:16 26.61734 100.22495 9291 ft 180 kts 13°
2026-04-23 21:16 26.62948 100.22839 8665 ft 185 kts 14°
2026-04-23 21:17 26.64203 100.23250 8027 ft 187 kts 17°
2026-04-23 21:17 26.65377 100.23720 7765 ft 166 kts 16°
2026-04-23 21:17 26.66447 100.24056 7482 ft 151 kts 17°
2026-04-23 21:17 26.67370 100.24372 7397 ft 119 kts 13°
2026-04-23 21:18 26.67875 100.24534 7396 ft 32 kts 19°
2026-04-23 21:18 26.67939 100.24558 7396 ft 13 kts 17°
2026-04-23 21:18 26.68097 100.24609 7395 ft 33 kts 17°